Overview Statistics Trail Chart Weather Telemetry Raw packets
 

This is the latest recevied weather packets stored in our database for station/object OE3AOG-10. If no packets are shown the sender has not sent any weather packets the latest 10 day(s).

<< 2 3 4 5 6 7 8 >>
Time Temp. Humidity Pressure Rain* Wind** Luminosity Snow
1788273721 27.22° C 30% 1021.4 hPa - - - -
1788270120 28.89° C 31% 1021.8 hPa - - - -
1788266521 28.33° C 33% 1022.2 hPa - - - -
1788262920 27.78° C 36% 1022.4 hPa - - - -
1788259320 26.67° C 41% 1022.8 hPa - - - -
1788255720 25.56° C 45% 1022.8 hPa - - - -
1788252120 23.89° C 53% 1022.9 hPa - - - -
1788248520 22.78° C 63% 1022.8 hPa - - - -
1788244921 20° C 71% 1022.2 hPa - - - -
1788241321 17.22° C 76% 1022 hPa - - - -
1788237720 15.56° C 76% 1021.6 hPa - - - -
1788234120 16.11° C 75% 1021.1 hPa - - - -
1788230520 16.67° C 75% 1021 hPa - - - -
1788226919 16.67° C 74% 1020.5 hPa - - - -
1788223321 17.22° C 73% 1020.4 hPa - - - -
1788219721 18.33° C 71% 1020.5 hPa - - - -
1788216120 18.89° C 68% 1021.3 hPa - - - -
1788212520 19.44° C 62% 1022.3 hPa - - - -
1788208919 21.67° C 48% 1020.7 hPa - - - -
1788205319 25° C 40% 1018 hPa - - - -
1788201719 25° C 38% 1016.7 hPa - - - -
1788198118 26.11° C 36% 1016.4 hPa - - - -
1788194518 27.78° C 34% 1016.6 hPa - - - -
1788190918 28.89° C 32% 1016.7 hPa - - - -
1788187318 28.89° C 32% 1016.9 hPa - - - -

* Rain since midnight (hover to see other rain measurements)
** Current wind speed in m/s (hover to see current wind gust speed)